Flag for Germany Weather past 2 weeks in Marburg, Hesse, Germany

Now
37 °F

Overcast.


Feels Like: 32 °F
Forecast: 33 / 41 °F
Wind: 7 mph from Southwest

Location: Giessen

Current Time: Apr 1, 2015 at 11:42:25 PM

Latest Report: Apr 1, 2015 at 11:00 PM


Visibility: 25 mi

Pressure: 30.08 "Hg

Humidity: 80%

Dew point: 32 °F

Location of MarburgLocation

Historic Weather in Marburg — Graph

°F

Marburg temperature yesterday

Maximum temperature yesterday: 52 °F (at 1:00 PM)
Minimum temperature yesterday: 39 °F (at 3:00 AM)
Average temperature yesterday: 46 °F

Past Weeks' High & Low Weather Summary

 TemperatureHumidityPressure
High63 °F (Mar 18, 3:00 PM)100% (Mar 20, 7:00 AM)30.34 "Hg (Mar 20, 7:00 AM)
Low26 °F (Mar 23, 6:00 AM)35% (Mar 20, 5:00 PM)29.29 "Hg (Mar 31, 7:00 AM)
Average43 °F79%29.96 "Hg
* Reported Mar 17 9:00 PM — Apr 1 10:00 PM, Marburg, Weather by CustomWeather, © 2015

Note: Actual official high and low records may vary slightly from our data, if they occured in-between our weather recording intervals... More about our weather records

Advertising

Marburg weather history for previous 24 hours

 ConditionsComfort  
Time TempWeatherWind HumidityBarometerVisibility
10:00 PM
Wed, Apr 1
38 °FOvercast.7 mph81%30.09 "Hg25 mi
9:00 PM36 °FOvercast.5 mph88%30.10 "Hg19 mi
8:00 PM39 °FOvercast.8 mph81%30.09 "Hg28 mi
7:00 PM40 °FScattered clouds.8 mph78%30.07 "Hg28 mi
6:00 PM37 °FLight freezing rain. Low clouds.13 mph89%30.07 "Hg15 mi
5:00 PM38 °FRain. Low clouds.13 mph79%30.07 "Hg8 mi
4:00 PM43 °FPartly sunny.13 mph64%30.05 "Hg16 mi
3:00 PM45 °FPartly sunny.10 mph65%30.03 "Hg34 mi
2:00 PM42 °FOvercast.13 mph71%30.05 "Hg22 mi
1:00 PM42 °FOvercast.12 mph69%30.05 "Hg22 mi
12:00 PM42 °FScattered clouds.10 mph69%30.04 "Hg19 mi
11:00 AM40 °FPartly sunny.7 mph82%30.03 "Hg28 mi
10:00 AM38 °FScattered clouds.8 mph91%30.01 "Hg10 mi
9:00 AM35 °FRain. Low clouds.6 mph92%29.98 "Hg4 mi
8:00 AM38 °FOvercast.9 mph74%29.94 "Hg25 mi
7:00 AM38 °FHaze.10 mph70%29.91 "Hg28 mi
6:00 AM38 °FPassing clouds.9 mph77%29.89 "Hg25 mi
5:00 AM35 °FLow clouds.6 mph92%29.88 "Hg18 mi
4:00 AM36 °FLow clouds.13 mph87%29.87 "Hg40 mi
3:00 AM40 °FOvercast.9 mph72%29.85 "Hg28 mi
2:00 AM39 °FPassing clouds.10 mph71%29.85 "Hg43 mi
1:00 AM40 °FOvercast.9 mph71%29.84 "Hg43 mi
12:00 AM40 °FDrizzle. Overcast.8 mph87%29.80 "Hg31 mi
11:00 PM
Tue, Mar 31
41 °FOvercast.6 mph82%29.81 "Hg34 mi
Weather by CustomWeather, © 2015

See weather overviewHow to use our weather pages